Voltar ao catálogo

CONNECTA IOT-2

AtivoComunicaçõesSSO
NORAD 60522·PAYLOAD·🇹🇷 Turkey

Lançado Aug 16, 2024 de Vandenberg Space Force Base

Loading…

Próximas Passagens (próximas 24 horas)

TLE

AtualizadoSource: Space-Track

Época: Sep 14, 2026, 12:33 UTC

1 60522U 24149BG  26257.52311841  .00007083  00000-0  28872-3 0  9990
2 60522  97.3777 334.3249 0006744  23.5078 336.6467 15.24743505115504

Acompanhe CONNECTA IOT-2 em tempo real com AllMySat

Download on the App Store